FW7230 Weather Reports


time (UTC)temp
F
wind
direction
speed
knots
gust
knots
rain 1hr
in
rain 24hr
in
rain mn
in
humidity
%
barometer
mb
20260906172327 94 131 2.6 5.2 0.00 0.00 0.00 63 1016.7
20260906171333 95 167 3.5 9.6 0.00 0.00 0.00 63 1016.7
20260906170331 94 123 1.7 5.2 0.00 0.00 0.00 66 1016.9
20260906165315 93 95 3.5 6.1 0.00 0.00 0.00 69 1017.0
20260906164321 91 114 2.6 5.2 0.00 0.00 0.00 71 1017.0
20260906163338 90 105 3.5 5.2 0.00 0.00 0.00 72 1017.1
20260906162322 90 105 3.5 7.8 0.00 0.00 0.00 73 1017.1
20260906161320 89 47 3.5 6.1 0.00 0.00 0.00 74 1017.0
20260906160338 90 70 6.1 8.7 0.00 0.00 0.00 73 1017.1
20260906155318 88 75 2.6 5.2 0.00 0.00 0.00 77 1017.1
20260906154324 88 147 3.5 7.0 0.00 0.00 0.00 77 1017.0
20260906153339 87 60 4.3 7.8 0.00 0.00 0.00 79 1017.0
20260906152320 86 173 1.7 7.8 0.00 0.00 0.00 82 1017.0
20260906151408 84 193 2.6 7.8 0.00 0.00 0.00 86 1017.0
20260906150320 83 79 4.3 7.0 0.00 0.00 0.00 86 1017.0
20260906145326 83 75 3.5 7.0 0.00 0.00 0.00 87 1017.0
20260906144321 82 113 3.5 6.1 0.00 0.00 0.00 87 1017.1
20260906143338 82 88 3.5 7.0 0.00 0.00 0.00 89 1017.2
20260906142319 81 53 5.2 9.6 0.00 0.00 0.00 90 1017.2
20260906141326 80 86 3.5 8.7 0.00 0.00 0.00 92 1017.4
20260906140327 80 72 5.2 7.8 0.00 0.00 0.00 91 1017.4
20260906135331 80 56 2.6 6.1 0.00 0.00 0.00 91 1017.4
20260906134408 80 64 4.3 7.0 0.00 0.00 0.00 92 1017.4
20260906133318 79 60 1.7 7.0 0.00 0.00 0.00 94 1017.2
20260906132321 79 64 0.9 5.2 0.00 0.00 0.00 94 1017.1
20260906131326 78 74 1.7 5.2 0.00 0.00 0.00 94 1017.1
20260906130325 78 84 2.6 4.3 0.00 0.00 0.00 95 1017.1
20260906125909 77 113 1.7 3.5 0.00 0.00 0.00 95 1016.9
20260906124322 77 85 2.6 4.3 0.00 0.00 0.00 96 1016.8
20260906123340 76 55 1.7 3.5 0.00 0.00 0.00 96 1016.8
20260906122324 76 18 1.7 4.3 0.00 0.00 0.00 96 1016.7
20260906121315 76 23 1.7 2.6 0.00 0.00 0.00 95 1016.7
20260906120315 76 11 1.7 3.5 0.00 0.00 0.00 95 1016.5
20260906115409 76 30 1.7 4.3 0.00 0.00 0.00 95 1016.5
20260906114318 76 54 3.5 4.3 0.00 0.00 0.00 95 1016.3
20260906113337 76 60 1.7 3.5 0.00 0.00 0.00 94 1016.2
20260906112317 76 46 2.6 5.2 0.00 0.00 0.00 94 1016.1
20260906111344 77 63 1.7 3.5 0.00 0.00 0.00 94 1016.1
20260906110337 77 104 0.9 5.2 0.00 0.00 0.00 94 1015.8
20260906105316 77 82 2.6 4.3 0.00 0.00 0.00 94 1015.7
20260906104325 77 86 1.7 4.3 0.00 0.00 0.00 93 1015.5
20260906103323 77 25 2.6 5.2 0.00 0.00 0.00 93 1015.4
20260906102332 77 43 2.6 3.5 0.00 0.00 0.00 93 1015.4
20260906101320 77 73 1.7 3.5 0.00 0.00 0.00 92 1015.4
20260906100338 77 66 2.6 4.3 0.00 0.00 0.00 93 1015.4
20260906095319 77 34 1.7 2.6 0.00 0.00 0.00 92 1015.5
20260906094328 77 63 0.9 4.3 0.00 0.00 0.00 92 1015.5
20260906093410 77 82 1.7 5.2 0.00 0.00 0.00 91 1015.4
20260906091332 77 43 1.7 3.5 0.00 0.00 0.00 91 1015.4
20260906090328 77 68 1.7 3.5 0.00 0.00 0.00 91 1015.2
20260906085317 77 67 1.7 3.5 0.00 0.00 0.00 91 1015.2
20260906084342 77 94 1.7 3.5 0.00 0.00 0.00 91 1015.2
20260906083339 77 87 1.7 4.3 0.00 0.00 0.00 91 1015.1
20260906082340 77 89 1.7 4.3 0.00 0.00 0.00 91 1015.0
20260906081323 77 74 0.9 4.3 0.00 0.00 0.00 91 1015.0
20260906080335 77 91 1.7 2.6 0.00 0.00 0.00 91 1015.0
20260906075640 77 46 1.7 3.5 0.00 0.00 0.00 91 1015.1
20260906074337 77 27 2.6 3.5 0.00 0.00 0.00 91 1015.1
20260906073316 77 37 1.7 2.6 0.00 0.00 0.00 90 1015.1
20260906072322 77 62 1.7 3.5 0.00 0.00 0.00 90 1015.1
20260906071328 77 41 2.6 3.5 0.00 0.00 0.00 90 1015.3
20260906070325 77 11 2.6 3.5 0.00 0.00 0.00 90 1015.3
20260906065328 77 20 1.7 3.5 0.00 0.00 0.00 89 1015.3
20260906064316 77 25 1.7 1.7 0.00 0.00 0.00 89 1015.2
20260906063334 78 16 1.7 2.6 0.00 0.00 0.00 89 1015.4
20260906062313 78 10 1.7 2.6 0.00 0.00 0.00 88 1015.4
20260906061340 78 15 1.7 2.6 0.00 0.00 0.00 88 1015.6
20260906060338 78 13 0.9 1.7 0.00 0.00 0.00 88 1015.7
20260906055344 78 16 1.7 1.7 0.00 0.00 0.00 87 1015.7
20260906055141 78 16 0.9 1.7 0.00 0.00 0.00 87 1015.8
20260906053358 78 11 0.9 2.6 0.00 0.00 0.00 86 1015.7
20260906052339 78 18 1.7 2.6 0.00 0.00 0.00 86 1015.7
20260906051345 79 12 1.7 1.7 0.00 0.00 0.00 85 1015.6
20260906050341 79 11 0.9 1.7 0.00 0.00 0.00 85 1015.5
20260906045337 79 16 0.9 1.7 0.00 0.00 0.00 84 1015.4
20260906044405 79 13 1.7 1.7 0.00 0.00 0.00 84 1015.4
20260906043403 80 9 1.7 1.7 0.00 0.00 0.00 84 1015.4
20260906042351 80 14 1.7 2.6 0.00 0.00 0.00 84 1015.4
20260906041339 80 18 1.7 1.7 0.00 0.00 0.00 83 1015.4
20260906040338 81 16 0.9 1.7 0.00 0.00 0.00 83 1015.3
20260906035345 81 16 0.9 1.7 0.00 0.00 0.00 82 1015.2
20260906034332 81 20 1.7 1.7 0.00 0.00 0.00 82 1015.0
20260906033349 81 23 0.9 1.7 0.00 0.00 0.00 82 1014.8
20260906032336 81 40 0.9 1.7 0.00 0.00 0.00 82 1014.8
20260906031911 81 110 0.9 1.7 0.00 0.00 0.00 82 1014.9
20260906030342 82 30 0.9 1.7 0.00 0.00 0.00 81 1014.8
20260906025346 82 31 0.9 1.7 0.00 0.00 0.00 81 1014.7
20260906024334 83 23 0.9 1.7 0.00 0.00 0.00 80 1014.6
20260906023332 83 23 1.7 2.6 0.00 0.00 0.00 79 1014.4
20260906022338 83 50 0.9 2.6 0.00 0.00 0.00 78 1014.3
20260906021345 84 46 0.9 2.6 0.00 0.00 0.00 77 1014.1
20260906020344 84 26 0.9 2.6 0.00 0.00 0.00 76 1013.9
20260906015333 84 55 1.7 2.6 0.00 0.00 0.00 75 1013.7
20260906014338 85 101 0.9 2.6 0.00 0.00 0.00 74 1013.5
20260906013335 85 49 1.7 2.6 0.00 0.00 0.00 73 1013.4
20260906012340 85 105 0.9 1.7 0.00 0.00 0.00 72 1013.3
20260906011348 86 33 0.9 1.7 0.00 0.00 0.00 70 1013.4
20260906010345 87 70 0.9 1.7 0.00 0.00 0.00 68 1013.3
20260906005332 88 76 0.9 1.7 0.00 0.00 0.00 65 1013.2
20260906004338 90 89 0.9 2.6 0.00 0.00 0.00 63 1013.2
20260906003339 91 94 1.7 3.5 0.00 0.00 0.00 60 1013.1
20260906002346 92 98 1.7 2.6 0.00 0.00 0.00 58 1013.3
20260906002141 93 83 1.7 3.5 0.00 0.00 0.00 57 1013.2
20260906000333 94 96 1.7 4.3 0.00 0.00 0.00 56 1013.2
20260905235643 94 108 2.6 5.2 0.00 0.00 0.00 55 1013.3
20260905234339 95 103 2.6 4.3 0.00 0.00 0.00 54 1013.3
20260905233353 97 82 3.5 6.1 0.00 0.00 0.00 52 1013.2
20260905231338 98 101 2.6 5.2 0.00 0.00 0.00 51 1013.1
20260905230338 98 97 2.6 6.1 0.00 0.00 0.00 50 1013.0
20260905225344 98 63 4.3 5.2 0.00 0.00 0.00 49 1013.0
20260905224332 97 75 2.6 5.2 0.00 0.00 0.00 50 1012.9
20260905223334 97 98 2.6 8.7 0.00 0.00 0.00 50 1012.9
20260905222338 97 76 3.5 6.1 0.00 0.00 0.00 50 1012.9
20260905221402 99 102 4.3 7.0 0.00 0.00 0.00 46 1012.9
20260905214336 99 77 4.3 7.8 0.00 0.00 0.00 46 1012.8
20260905213412 99 52 2.6 5.2 0.00 0.00 0.00 47 1013.0
20260905212332 99 75 3.5 7.0 0.00 0.00 0.00 45 1013.2
20260905211338 100 41 3.5 7.8 0.00 0.00 0.00 45 1013.3
20260905210356 100 121 3.5 7.0 0.00 0.00 0.00 44 1013.3
20260905205336 101 49 1.7 4.3 0.00 0.00 0.00 45 1013.4
20260905204403 102 156 1.7 3.5 0.00 0.00 0.00 43 1013.8
20260905202349 103 242 0.9 1.7 0.00 0.00 0.00 41 1014.1
20260905201337 102 78 1.7 2.6 0.00 0.00 0.00 42 1014.3
20260905200352 102 222 0.0 1.7 0.00 0.00 0.00 42 1014.3
20260905195332 103 184 1.7 2.6 0.00 0.00 0.00 42 1014.3
20260905194337 103 132 0.9 3.5 0.00 0.00 0.00 44 1014.5
20260905193910 104 176 2.6 5.2 0.00 0.00 0.00 42 1014.7
20260905191336 103 184 1.7 5.2 0.00 0.00 0.00 43 1014.9
20260905190354 103 105 1.7 3.5 0.00 0.00 0.00 41 1015.0
20260905185414 102 125 0.9 2.6 0.00 0.00 0.00 42 1015.2
20260905184343 102 255 1.7 3.5 0.00 0.00 0.00 42 1015.2
20260905183341 101 125 1.7 3.5 0.00 0.00 0.00 45 1015.3
20260905182349 101 169 1.7 2.6 0.00 0.00 0.00 48 1015.3
20260905181334 100 173 1.7 2.6 0.00 0.00 0.00 49 1015.4
20260905180332 101 214 0.9 1.7 0.00 0.00 0.00 47 1015.6
20260905175341 101 193 0.9 2.6 0.00 0.00 0.00 48 1015.7
20260905174407 101 201 0.9 2.6 0.00 0.00 0.00 45 1015.8
20260905173341 101 208 1.7 2.6 0.00 0.00 0.00 47 1015.8